TimeCST,TemperatureF,Dew PointF,Humidity,Sea Level PressureIn,VisibilityMPH,Wind Direction,Wind SpeedMPH,Gust SpeedMPH,PrecipitationIn,Events,Conditions,WindDirDegrees,DateUTC
12:13 AM,-2.2,-7.6,78,30.35,10.0,Calm,Calm,-,N/A,,Clear,0,2013-02-21 06:13:00
12:34 AM,-2.2,-7.6,78,30.36,10.0,Calm,Calm,-,N/A,,Clear,0,2013-02-21 06:34:00
12:54 AM,-2.2,-7.6,78,30.36,10.0,Calm,Calm,-,N/A,,Clear,0,2013-02-21 06:54:00
1:13 AM,-2.2,-7.6,78,30.36,10.0,Calm,Calm,-,N/A,,Clear,0,2013-02-21 07:13:00
1:34 AM,-2.2,-7.6,78,30.37,10.0,Calm,Calm,-,N/A,,Clear,0,2013-02-21 07:34:00
1:53 AM,-5.8,-9.4,84,30.37,10.0,NNE,4.6,-,N/A,,Clear,20,2013-02-21 07:53:00
2:14 AM,-5.8,-9.4,84,30.38,10.0,Calm,Calm,-,N/A,,Clear,0,2013-02-21 08:14:00
2:33 AM,-5.8,-9.4,84,30.38,10.0,Calm,Calm,-,N/A,,Clear,0,2013-02-21 08:33:00
2:53 AM,-4.0,-7.6,85,30.37,10.0,ENE,3.5,-,N/A,,Clear,70,2013-02-21 08:53:00
3:13 AM,-5.8,-9.4,84,30.37,10.0,ENE,3.5,-,N/A,,Clear,70,2013-02-21 09:13:00
3:33 AM,-7.6,-11.2,84,30.36,10.0,ENE,5.8,-,N/A,,Clear,60,2013-02-21 09:33:00
3:53 AM,-7.6,-11.2,84,30.35,10.0,East,3.5,-,N/A,,Clear,80,2013-02-21 09:53:00
4:13 AM,-5.8,-11.2,77,30.34,10.0,ENE,4.6,-,N/A,,Clear,70,2013-02-21 10:13:00
4:34 AM,-4.0,-7.6,85,30.31,10.0,ENE,9.2,-,N/A,,Clear,60,2013-02-21 10:34:00
4:53 AM,-0.4,-5.8,78,30.31,10.0,East,6.9,-,N/A,,Clear,80,2013-02-21 10:53:00
5:13 AM,-0.4,-5.8,78,30.30,10.0,East,9.2,-,N/A,,Clear,80,2013-02-21 11:13:00
5:33 AM,1.4,-4.0,78,30.28,10.0,East,9.2,-,N/A,,Clear,80,2013-02-21 11:33:00
5:53 AM,1.4,-4.0,78,30.29,10.0,East,6.9,-,N/A,,Clear,80,2013-02-21 11:53:00
6:14 AM,-0.4,-5.8,78,30.31,10.0,ESE,4.6,-,N/A,,Clear,120,2013-02-21 12:14:00
6:33 AM,-0.4,-5.8,78,30.35,10.0,SE,6.9,-,N/A,,Clear,130,2013-02-21 12:33:00
6:54 AM,1.4,-4.0,78,30.37,10.0,SE,6.9,-,N/A,,Clear,130,2013-02-21 12:54:00
7:13 AM,1.4,-2.2,85,30.37,10.0,SE,4.6,-,N/A,,Scattered Clouds,130,2013-02-21 13:13:00
7:34 AM,-0.4,-5.8,78,30.36,10.0,East,6.9,-,N/A,,Scattered Clouds,100,2013-02-21 13:34:00
7:53 AM,-0.4,-5.8,78,30.35,10.0,East,4.6,-,N/A,,Clear,90,2013-02-21 13:53:00
8:13 AM,1.4,-4.0,78,30.34,10.0,East,6.9,-,N/A,,Clear,80,2013-02-21 14:13:00
8:33 AM,3.2,-2.2,78,30.33,10.0,East,8.1,-,N/A,,Clear,80,2013-02-21 14:33:00
8:53 AM,6.8,-0.4,72,30.32,10.0,East,10.4,-,N/A,,Clear,90,2013-02-21 14:53:00
9:13 AM,6.8,-0.4,72,30.32,10.0,East,6.9,-,N/A,,Clear,90,2013-02-21 15:13:00
9:35 AM,8.6,1.4,73,30.31,10.0,East,8.1,-,N/A,,Scattered Clouds,100,2013-02-21 15:35:00
9:53 AM,10.4,1.4,67,30.33,10.0,ESE,9.2,-,N/A,,Scattered Clouds,110,2013-02-21 15:53:00
10:13 AM,10.4,3.2,73,30.33,10.0,ESE,9.2,-,N/A,,Scattered Clouds,110,2013-02-21 16:13:00
10:33 AM,12.2,3.2,67,30.33,10.0,ESE,10.4,-,N/A,,Scattered Clouds,110,2013-02-21 16:33:00
10:53 AM,12.2,5.0,73,30.34,10.0,ESE,10.4,-,N/A,,Scattered Clouds,110,2013-02-21 16:53:00
11:13 AM,14.0,6.8,73,30.33,10.0,East,9.2,-,N/A,,Mostly Cloudy,100,2013-02-21 17:13:00
11:34 AM,15.8,6.8,68,30.33,10.0,East,9.2,-,N/A,,Mostly Cloudy,100,2013-02-21 17:34:00
12:14 PM,15.8,8.6,73,30.30,10.0,ESE,9.2,-,N/A,,Mostly Cloudy,110,2013-02-21 18:14:00
12:33 PM,15.8,8.6,73,30.29,10.0,East,9.2,-,N/A,,Mostly Cloudy,100,2013-02-21 18:33:00
12:53 PM,17.6,8.6,68,30.29,10.0,East,9.2,-,N/A,,Overcast,90,2013-02-21 18:53:00
1:14 PM,17.6,8.6,68,30.28,10.0,ESE,9.2,-,N/A,,Overcast,110,2013-02-21 19:14:00
1:33 PM,17.6,8.6,68,30.27,10.0,East,8.1,-,N/A,,Overcast,80,2013-02-21 19:33:00
1:54 PM,17.6,8.6,68,30.26,10.0,East,9.2,-,N/A,,Overcast,80,2013-02-21 19:54:00
2:13 PM,17.6,8.6,68,30.24,10.0,East,10.4,-,N/A,,Overcast,80,2013-02-21 20:13:00
2:33 PM,19.4,10.4,68,30.24,10.0,East,10.4,-,N/A,,Scattered Clouds,90,2013-02-21 20:33:00
2:53 PM,19.4,10.4,68,30.22,10.0,NE,10.4,-,N/A,,Scattered Clouds,50,2013-02-21 20:53:00
3:13 PM,19.4,10.4,68,30.21,10.0,NE,10.4,-,N/A,,Scattered Clouds,50,2013-02-21 21:13:00
3:33 PM,19.4,10.4,68,30.21,10.0,ENE,10.4,-,N/A,,Scattered Clouds,70,2013-02-21 21:33:00
3:53 PM,19.4,10.4,68,30.21,10.0,ENE,10.4,-,N/A,,Scattered Clouds,70,2013-02-21 21:53:00
4:33 PM,19.4,10.4,68,30.21,10.0,ENE,6.9,-,N/A,,Clear,60,2013-02-21 22:33:00
4:53 PM,17.6,10.4,73,30.21,10.0,ENE,5.8,-,N/A,,Scattered Clouds,70,2013-02-21 22:53:00
5:13 PM,17.6,10.4,73,30.20,10.0,ENE,6.9,-,N/A,,Mostly Cloudy,60,2013-02-21 23:13:00
5:33 PM,17.6,10.4,73,30.19,10.0,NE,4.6,-,N/A,,Scattered Clouds,50,2013-02-21 23:33:00
5:54 PM,17.6,10.4,73,30.19,10.0,NE,5.8,-,N/A,,Clear,40,2013-02-21 23:54:00
6:13 PM,17.6,12.2,79,30.19,10.0,NE,5.8,-,N/A,,Scattered Clouds,50,2013-02-22 00:13:00
6:33 PM,17.6,10.4,73,30.19,10.0,ENE,9.2,-,N/A,,Scattered Clouds,70,2013-02-22 00:33:00
6:53 PM,17.6,10.4,73,30.19,10.0,ENE,8.1,-,N/A,,Scattered Clouds,70,2013-02-22 00:53:00
7:14 PM,17.6,10.4,73,30.17,10.0,ENE,10.4,-,N/A,,Scattered Clouds,70,2013-02-22 01:14:00
7:34 PM,17.6,10.4,73,30.17,10.0,ENE,9.2,-,N/A,,Scattered Clouds,70,2013-02-22 01:34:00
7:53 PM,17.6,8.6,68,30.16,10.0,East,9.2,-,N/A,,Scattered Clouds,80,2013-02-22 01:53:00
8:13 PM,19.4,8.6,63,30.16,10.0,East,9.2,-,N/A,,Mostly Cloudy,80,2013-02-22 02:13:00
8:33 PM,17.6,8.6,68,30.15,10.0,ENE,9.2,-,N/A,,Mostly Cloudy,60,2013-02-22 02:33:00
8:53 PM,17.6,10.4,73,30.14,10.0,ENE,10.4,-,N/A,,Mostly Cloudy,60,2013-02-22 02:53:00
9:13 PM,17.6,10.4,73,30.13,10.0,ENE,10.4,-,N/A,,Mostly Cloudy,60,2013-02-22 03:13:00
9:33 PM,19.4,10.4,68,30.12,10.0,ENE,11.5,-,N/A,,Mostly Cloudy,70,2013-02-22 03:33:00
10:13 PM,19.4,10.4,68,30.11,10.0,ENE,5.8,-,N/A,,Scattered Clouds,70,2013-02-22 04:13:00
10:33 PM,19.4,10.4,68,30.11,10.0,ENE,6.9,-,N/A,,Scattered Clouds,70,2013-02-22 04:33:00
10:53 PM,19.4,10.4,68,30.11,10.0,ENE,8.1,-,N/A,,Mostly Cloudy,70,2013-02-22 04:53:00
11:13 PM,19.4,12.2,74,30.10,10.0,ENE,4.6,-,N/A,Snow,Light Snow,60,2013-02-22 05:13:00
11:33 PM,19.4,14.0,80,30.09,5.0,NNE,4.6,-,N/A,Snow,Light Snow,30,2013-02-22 05:33:00
11:53 PM,19.4,15.8,86,30.09,10.0,NNE,5.8,-,N/A,,Overcast,30,2013-02-22 05:53:00